Total_Precipitation_Accumulation
0.03 0.11 0.29 0.58 1.06 1.65 1.82 1.25 0.93 0.82 0.73 0.65 0.52 0.45 0.54 0.80 1.08 1.73 1.45 1.01 0.75 0.68 0.69 0.72 0.75 0.61 0.53 0.53 0.56 0.58 0.59 0.55 0.50 0.51 0.63 0.75 0.98 1.07 1.02 1.04 1.26 1.51 1.57 1.50 1.47 1.22 1.02 1.00 0.90
0.04 0.13 0.35 0.77 1.49 2.18 1.86 1.05 0.81 0.77 0.63 0.60 0.57 0.54 0.63 0.74 0.74 0.90 1.06 0.91 0.63 0.54 0.58 0.55 0.60 0.58 0.50 0.49 0.52 0.53 0.54 0.53 0.54 0.60 0.68 0.74 0.88 1.03 1.11 1.21 1.42 1.58 1.48 1.40 1.17 0.96 0.85 0.78 0.69
0.10 0.22 0.39 0.81 1.31 1.89 1.48 0.89 0.66 0.62 0.56 0.64 0.79 0.71 0.82 0.92 0.87 0.99 0.95 0.76 0.61 0.52 0.49 0.60 0.61 0.56 0.52 0.46 0.51 0.53 0.55 0.55 0.57 0.64 0.70 0.74 0.84 1.03 1.17 1.19 1.34 1.34 1.21 1.09 0.96 0.88 0.74 0.65 0.60
0.12 0.29 0.46 0.70 0.86 0.83 0.86 0.85 0.63 0.72 0.75 0.68 0.78 0.98 0.98 0.88 0.86 0.95 0.97 0.81 0.60 0.55 0.51 0.57 0.59 0.55 0.55 0.47 0.47 0.51 0.54 0.60 0.61 0.71 0.78 0.81 0.91 1.03 1.08 1.13 1.23 1.18 1.07 0.97 0.91 0.82 0.67 0.59 0.57
0.12 0.31 0.53 0.67 0.78 0.62 0.62 0.71 0.61 0.68 0.71 0.70 0.75 1.16 1.29 1.07 0.85 0.85 0.88 0.85 0.66 0.76 0.71 0.65 0.66 0.62 0.57 0.47 0.44 0.48 0.53 0.63 0.66 0.71 0.75 0.76 0.82 0.90 0.96 1.06 1.08 1.02 0.93 0.84 0.81 0.75 0.63 0.64 0.68
0.11 0.28 0.53 0.61 0.65 0.52 0.56 0.62 0.60 0.63 0.72 0.79 0.93 1.32 1.53 1.33 1.17 1.12 1.10 0.97 0.78 0.82 0.82 0.77 0.78 0.71 0.66 0.55 0.51 0.55 0.60 0.67 0.70 0.72 0.71 0.71 0.74 0.76 0.84 0.95 0.96 0.82 0.71 0.70 0.77 0.77 0.69 0.67 0.72
0.09 0.21 0.42 0.49 0.57 0.57 0.54 0.51 0.57 0.72 0.94 1.02 1.14 1.50 1.59 1.82 1.68 1.46 1.45 1.35 1.09 0.98 0.92 0.85 0.81 0.70 0.71 0.71 0.63 0.66 0.73 0.76 0.74 0.73 0.70 0.68 0.69 0.73 0.77 0.88 0.88 0.74 0.64 0.63 0.69 0.72 0.67 0.63 0.67
0.06 0.14 0.25 0.39 0.50 0.57 0.48 0.45 0.45 0.61 0.98 0.98 1.04 1.31 1.70 1.66 1.68 1.89 1.87 1.87 1.59 1.38 1.13 0.95 0.95 0.92 0.81 0.79 0.75 0.84 0.88 0.87 0.85 0.78 0.77 0.76 0.79 0.78 0.80 0.82 0.81 0.78 0.71 0.65 0.64 0.67 0.63 0.65 0.68
0.06 0.16 0.21 0.31 0.41 0.40 0.32 0.36 0.39 0.52 0.70 0.88 1.07 1.10 1.29 1.24 1.45 1.87 2.12 2.33 2.23 1.73 1.46 1.21 1.07 1.05 0.99 0.93 0.98 1.22 1.20 1.10 1.03 1.00 0.98 0.97 1.07 1.01 1.01 0.90 0.95 0.94 0.91 0.91 0.89 0.91 0.86 0.83 0.79
0.07 0.16 0.16 0.19 0.25 0.26 0.23 0.26 0.32 0.55 0.97 1.35 1.48 1.33 1.29 1.36 1.73 2.04 2.09 2.14 2.32 1.89 1.55 1.46 1.32 1.18 1.11 0.97 1.10 1.47 1.35 1.24 1.28 1.32 1.22 1.32 1.40 1.38 1.05 1.12 1.30 1.40 1.46 1.43 1.50 1.60 1.33 1.14 1.26
0.04 0.08 0.11 0.15 0.17 0.18 0.21 0.25 0.30 0.51 1.02 1.37 1.54 1.52 1.55 1.57 1.94 2.30 2.41 2.21 2.28 2.14 1.79 1.67 1.52 1.40 1.40 1.50 1.34 1.46 1.56 1.57 1.54 1.51 1.52 1.57 1.36 1.25 1.25 1.44 1.67 1.85 1.88 1.84 2.11 2.16 1.70 1.81 2.21
0.02 0.03 0.08 0.12 0.15 0.18 0.20 0.23 0.38 0.53 0.85 1.14 1.19 1.63 1.85 1.79 2.11 2.32 2.45 2.56 2.47 2.38 2.08 1.86 1.72 1.71 1.77 1.72 1.64 1.53 1.57 1.55 1.59 1.69 1.67 1.83 1.95 1.89 1.93 2.05 2.03 2.17 2.31 2.59 2.64 2.79 2.40 2.39 2.28
0.01 0.02 0.05 0.08 0.13 0.16 0.21 0.24 0.29 0.56 0.72 0.94 1.13 1.52 1.76 1.72 2.11 2.45 2.75 2.84 2.81 2.54 2.24 2.18 1.91 1.82 1.86 1.99 2.04 1.80 1.92 1.86 1.84 1.99 2.09 2.15 2.36 2.39 2.42 2.41 2.41 2.24 2.44 2.65 3.02 2.97 3.17 3.14 2.79
0.01 0.03 0.05 0.08 0.10 0.15 0.29 0.39 0.39 0.71 0.77 0.90 1.15 1.60 1.69 1.65 1.91 1.95 2.33 2.64 2.75 2.49 2.32 2.26 2.13 2.14 2.22 2.21 2.26 2.30 2.31 2.35 2.27 2.24 2.28 2.34 2.56 2.83 2.85 2.75 2.73 2.52 2.51 2.82 3.10 3.14 3.61 3.50 3.35
0.02 0.07 0.11 0.13 0.16 0.23 0.34 0.59 0.64 0.83 0.90 1.09 1.13 1.34 1.49 1.49 1.62 1.79 2.06 2.35 2.45 2.27 2.36 2.50 2.63 2.81 2.86 2.84 2.79 2.72 2.75 2.70 2.74 2.88 2.88 2.92 2.90 3.03 2.96 2.95 2.82 2.82 2.85 3.05 3.12 3.27 3.67 3.46 3.39
0.05 0.14 0.24 0.26 0.25 0.29 0.50 1.04 0.96 1.02 1.00 1.06 1.06 1.19 1.31 1.36 1.52 1.85 2.00 2.21 2.37 2.30 2.41 2.64 2.74 3.11 3.26 3.30 3.39 3.30 3.22 3.13 3.24 3.27 3.30 3.29 3.22 3.11 3.19 2.99 2.82 3.00 3.05 3.26 3.50 3.51 3.59 3.70 3.65
0.10 0.17 0.27 0.33 0.23 0.24 0.46 0.88 0.84 0.93 1.12 1.02 1.02 1.07 1.12 1.19 1.31 1.54 1.80 2.03 2.32 2.66 2.92 3.25 3.32 3.28 3.37 3.55 3.71 3.49 3.42 3.32 3.24 3.17 3.28 3.21 3.06 2.99 3.33 3.18 3.19 3.24 3.45 3.37 3.11 3.64 3.78 3.77 3.70
0.08 0.16 0.23 0.28 0.26 0.24 0.38 0.61 0.77 0.87 0.98 1.06 1.07 1.16 1.23 1.32 1.55 1.77 2.09 2.28 2.52 3.03 3.38 3.56 3.65 3.86 4.13 4.32 4.22 3.98 3.57 3.27 3.14 3.08 3.07 3.04 3.03 2.95 3.27 3.09 3.11 3.32 3.68 3.77 3.70 3.92 3.82 3.67 3.72
0.07 0.16 0.22 0.23 0.29 0.32 0.40 0.49 0.81 1.03 1.12 1.25 1.42 1.62 1.82 2.01 2.07 2.23 2.53 2.76 2.91 3.06 3.30 3.59 4.02 4.36 4.46 4.29 4.22 4.13 3.81 3.50 3.15 2.88 2.81 2.94 2.84 2.91 3.26 2.97 3.36 3.41 3.59 3.76 3.74 3.94 3.86 3.63 3.71
0.09 0.17 0.25 0.28 0.32 0.32 0.46 0.57 0.82 1.23 1.35 1.31 1.36 1.39 1.48 1.93 2.14 2.32 2.57 2.71 2.71 2.90 3.19 3.60 4.06 4.37 4.28 4.38 4.58 4.51 4.26 3.57 3.20 3.03 2.95 2.86 2.79 2.80 2.89 3.36 3.34 3.44 3.62 3.64 3.58 3.68 3.53 3.29 3.57
0.10 0.15 0.22 0.28 0.38 0.35 0.46 0.85 1.05 1.34 1.47 1.33 1.29 1.31 1.28 1.48 1.79 1.93 2.09 2.28 2.52 2.93 3.34 3.62 3.94 4.10 4.13 4.33 4.44 4.15 3.93 3.43 3.30 3.30 3.13 2.96 2.94 2.95 3.06 3.28 3.37 3.40 3.26 3.40 3.57 3.41 3.36 3.27 3.33
0.12 0.11 0.14 0.22 0.36 0.50 0.58 1.19 1.48 1.67 1.54 1.26 1.29 1.34 1.45 1.56 1.65 1.77 1.83 2.12 2.49 2.88 3.45 3.85 3.89 3.97 3.86 3.97 4.07 3.89 3.54 3.29 3.19 3.19 2.96 2.83 2.76 2.76 2.86 2.96 3.15 3.26 3.15 3.24 3.15 3.17 3.28 3.27 3.12
0.09 0.08 0.11 0.18 0.28 0.47 0.64 1.05 1.53 1.61 1.48 1.21 1.12 1.31 1.53 1.52 1.57 1.81 1.77 1.94 2.20 2.61 3.01 3.41 3.76 3.84 3.66 3.58 3.62 3.74 3.58 3.31 3.09 2.97 2.88 2.81 2.79 2.59 2.54 2.71 2.91 2.98 2.88 2.84 3.05 3.30 3.23 3.07 2.96
0.07 0.09 0.16 0.27 0.44 0.79 0.64 0.78 1.22 1.48 1.36 1.10 1.12 1.24 1.40 1.57 1.58 1.73 1.99 2.03 2.13 2.41 2.76 3.04 3.28 3.28 3.20 3.15 3.19 3.29 3.35 3.32 3.07 2.86 2.86 2.83 2.69 2.52 2.43 2.48 2.71 2.76 2.71 2.67 2.78 2.86 2.89 2.88 2.96
0.09 0.18 0.53 0.87 1.17 1.03 0.68 0.79 1.16 1.13 0.96 0.86 0.93 1.17 1.43 1.71 1.72 1.76 1.93 2.01 2.08 2.22 2.39 2.53 2.63 2.67 2.64 2.67 2.65 2.64 2.76 2.83 2.68 2.60 2.66 2.64 2.53 2.42 2.39 2.35 2.43 2.37 2.34 2.39 2.62 2.64 2.59 2.64 2.75
0.11 0.22 0.60 0.80 0.95 0.91 0.85 1.07 1.15 0.92 0.79 0.79 0.86 1.04 1.31 1.48 1.51 1.60 1.69 1.60 1.62 1.72 1.85 2.00 2.11 2.12 2.08 2.16 2.24 2.25 2.44 2.43 2.40 2.53 2.45 2.46 2.39 2.36 2.30 2.17 2.09 2.03 2.02 2.06 2.36 2.48 2.43 2.49 2.51
0.20 0.26 0.28 0.46 0.58 0.93 1.13 1.26 1.16 0.84 0.96 0.95 1.02 1.08 1.13 1.17 1.20 1.20 1.22 1.28 1.41 1.47 1.51 1.58 1.77 1.79 1.72 1.78 1.93 2.00 2.05 2.15 2.24 2.30 2.21 2.10 2.13 2.01 2.03 1.98 1.89 1.82 1.86 1.95 2.04 2.10 2.07 2.19 2.20
0.22 0.34 0.47 0.69 0.91 1.08 1.18 1.46 1.64 1.45 1.36 1.23 1.34 1.55 1.31 1.05 1.06 1.08 1.06 1.10 1.15 1.19 1.29 1.44 1.59 1.73 1.74 1.69 1.72 1.67 1.75 1.84 2.02 2.08 1.99 1.99 2.06 2.01 1.92 1.83 1.74 1.72 1.69 1.73 1.85 1.83 1.85 1.88 1.88
0.33 0.41 0.51 0.66 0.76 1.03 1.31 1.50 1.31 1.46 1.42 1.35 1.33 1.37 1.26 0.93 0.81 0.89 0.88 0.92 0.97 1.02 1.13 1.28 1.57 1.73 1.67 1.51 1.52 1.57 1.55 1.64 1.78 1.83 1.79 1.87 1.95 2.04 2.01 1.92 1.84 1.70 1.61 1.64 1.70 1.58 1.69 1.73 1.72
0.28 0.42 0.52 0.69 0.78 0.87 1.10 1.34 0.96 1.08 1.04 0.99 1.04 0.94 0.85 0.78 0.64 0.75 0.80 0.78 0.82 0.86 0.94 1.10 1.31 1.47 1.48 1.43 1.44 1.54 1.63 1.63 1.59 1.59 1.60 1.64 1.67 1.70 1.70 1.67 1.66 1.67 1.70 1.75 1.66 1.59 1.60 1.65 1.61